Luz, Portugal

1:07 PM WEST on August 17, 2017 (GMT +0100)
Luz

Weather History for 08554 - April, 2013

Change the Weather History Date:

Saturday, April 6, 2013

  Actual Average Record
Temperature  
Mean Temperature 54 °F -  
Max Temperature 64 °F 68 °F - ()
Min Temperature 45 °F 53 °F - ()
Degree Days  
Heating Degree Days 10    
Growing Degree Days 4 (Base 50)    
Moisture  
Dew Point 37 °F    
Average Humidity 54    
Maximum Humidity 81    
Minimum Humidity 22    
Precipitation  
Precipitation 0.00 in 0.05 in - ()
Sea Level Pressure  
Sea Level Pressure 30.17 in    
Wind  
Wind Speed 11 mph ()    
Max Wind Speed 22 mph    
Max Gust Speed -    
Visibility 7.8 miles    
Events      
T = Trace of Precipitation, MM = Missing Value Source: Averaged Metar Reports

Daily Weather History Graph

Daily Weather History Graph

Search for Another Location

Airport or City:

Trip Planner

Search our weather history database for the weather conditions in past years. The results will help you decide how hot, cold, wet, or windy it might be!

Date:

Astronomy

Apr. 06, 2013 Rise Set
Actual Time 7:10 AM WEST 7:58 PM WEST
Civil Twilight 6:43 AM WEST 8:25 PM WEST
Nautical Twilight 6:12 AM WEST 8:56 PM WEST
Astronomical Twilight 5:40 AM WEST 9:28 PM WEST
Moon 4:40 AM WEST (4/6) 4:17 PM WEST (4/6)
Length of Visible Light 13h 41m
Length of Day
12h 48m
Waning Crescent, 17% of the Moon is Illuminated
Apr 6
Waning Crescent
Apr 10
New
Apr 18
First Quarter
Apr 25
Full
May 2
Last Quarter

Hourly Weather History & Observations

Time (WEST) Temp. Windchill Dew Point Humidity Pressure Visibility Wind Dir Wind Speed Gust Speed Precip Events Conditions
12:00 AM 51.8 °F - 37.4 °F 58% 30.09 in - NNW 21.9 mph - N/A   Clear
12:30 AM 50.0 °F - 37.4 °F 62% 30.09 in - NNW 19.6 mph - N/A   Clear
1:00 AM 51 °F - 36 °F 44% 30.14 in 12 mi NNW 15.7 mph - -   Partly Cloudy
1:00 AM 50.0 °F - 37.4 °F 62% 30.09 in - NNW 16.1 mph - N/A   Clear
1:30 AM 50.0 °F - 37.4 °F 62% 30.12 in - NNW 10.4 mph - N/A   Clear
2:00 AM 50.0 °F - 37.4 °F 62% 30.12 in - North 6.9 mph - N/A   Clear
2:30 AM 50.0 °F - 37.4 °F 62% 30.12 in - NNW 9.2 mph - N/A   Clear
3:00 AM 48.2 °F - 37.4 °F 66% 30.15 in - NNW 8.1 mph - N/A   Clear
3:30 AM 48.2 °F - 39.2 °F 71% 30.15 in - WSW 5.8 mph - N/A   Clear
4:00 AM 47 °F - 37 °F 57% 30.18 in 12 mi WSW 6.7 mph - -   Partly Cloudy
4:00 AM 46.4 °F 42.9 °F 39.2 °F 76% 30.15 in - WSW 6.9 mph - N/A   Clear
4:30 AM 46.4 °F 42.9 °F 37.4 °F 71% 30.15 in - West 6.9 mph - N/A   Clear
5:00 AM 46.4 °F 43.5 °F 39.2 °F 76% 30.15 in - WSW 5.8 mph - N/A   Clear
5:30 AM 46.4 °F 42.9 °F 39.2 °F 76% 30.15 in - West 6.9 mph - N/A   Clear
6:00 AM 44.6 °F 40.7 °F 39.2 °F 81% 30.15 in - West 6.9 mph - N/A   Clear
6:30 AM 46.4 °F 42.9 °F 37.4 °F 71% 30.18 in - NW 6.9 mph - N/A   Clear
7:00 AM 47 °F - 35 °F 51% 30.21 in 12 mi NNW 4.5 mph - -   Partly Cloudy
7:00 AM 46.4 °F 41.1 °F 35.6 °F 66% 30.18 in - NNW 11.5 mph - N/A   Clear
7:30 AM 46.4 °F 40.1 °F 35.6 °F 66% 30.18 in - NNW 15.0 mph - N/A   Clear
8:00 AM 46.4 °F 41.9 °F 37.4 °F 71% 30.18 in - NW 9.2 mph - N/A   Clear
8:30 AM 48.2 °F - 35.6 °F 62% 30.21 in 6.2 mi NNW 5.8 mph - N/A   Partly Cloudy
9:00 AM 50.0 °F - 35.6 °F 58% 30.21 in 6.2 mi NNW 4.6 mph - N/A   Partly Cloudy
9:30 AM 53.6 °F - 30.2 °F 41% 30.21 in 6.2 mi NNW 11.5 mph - N/A   Partly Cloudy
10:00 AM 54 °F - 28 °F 24% 30.24 in 9 mi NNW 11.2 mph - -   Scattered Clouds
10:00 AM 53.6 °F - 30.2 °F 41% 30.21 in 6.2 mi NNW 15.0 mph - N/A   Partly Cloudy
10:30 AM 53.6 °F - 26.6 °F 35% 30.21 in 6.2 mi NNW 15.0 mph - N/A   Partly Cloudy
11:00 AM 55.4 °F - 28.4 °F 36% 30.21 in 6.2 mi North 12.7 mph - N/A   Partly Cloudy
11:30 AM 55.4 °F - 30.2 °F 38% 30.21 in 6.2 mi North 10.4 mph - N/A   Partly Cloudy
12:00 PM 55.4 °F - 30.2 °F 38% 30.21 in 6.2 mi NNW 13.8 mph - N/A   Partly Cloudy
12:30 PM 59.0 °F - 33.8 °F 39% 30.21 in 6.2 mi North 9.2 mph - N/A   Partly Cloudy
1:00 PM 60 °F - 32 °F 22% 30.22 in 9 mi North 8.9 mph - -   Scattered Clouds
1:00 PM 59.0 °F - 32.0 °F 36% 30.18 in 6.2 mi NNW 13.8 mph - N/A   Partly Cloudy
1:30 PM 60.8 °F - 32.0 °F 34% 30.18 in 6.2 mi Variable 9.2 mph - N/A   Partly Cloudy
2:00 PM 60.8 °F - 35.6 °F 39% 30.18 in 6.2 mi NW 9.2 mph - N/A   Partly Cloudy
2:30 PM 60.8 °F - 32.0 °F 34% 30.18 in - NW 11.5 mph - N/A   Clear
3:00 PM 60.8 °F - 32.0 °F 34% 30.15 in - NNW 13.8 mph - N/A   Clear
3:30 PM 62.6 °F - 33.8 °F 34% 30.15 in - NW 12.7 mph - N/A   Clear
4:00 PM 61 °F - 41 °F 36% 30.18 in 9 mi WSW 15.7 mph - -   Clear
4:00 PM 60.8 °F - 42.8 °F 52% 30.15 in - West 15.0 mph - N/A   Clear
4:30 PM 60.8 °F - 41.0 °F 48% 30.15 in - WSW 13.8 mph - N/A   Clear
5:00 PM 60.8 °F - 41.0 °F 48% 30.15 in - WSW 15.0 mph - N/A   Clear
5:30 PM 60.8 °F - 44.6 °F 55% 30.15 in - West 13.8 mph - N/A   Clear
6:00 PM 60.8 °F - 42.8 °F 52% 30.15 in - WSW 12.7 mph - N/A   Clear
6:30 PM 62.6 °F - 42.8 °F 48% 30.15 in - NW 15.0 mph - N/A   Clear
7:00 PM 60 °F - 41 °F 38% 30.18 in 9 mi WNW 13.4 mph - -   Clear
7:00 PM 60.8 °F - 42.8 °F 52% 30.15 in - WNW 16.1 mph - N/A   Clear
7:30 PM 59.0 °F - 42.8 °F 55% 30.15 in - NW 13.8 mph - N/A   Clear
8:00 PM 57.2 °F - 42.8 °F 59% 30.15 in - NW 12.7 mph - N/A   Clear
8:30 PM 55.4 °F - 42.8 °F 63% 30.15 in - NW 15.0 mph - N/A   Clear
9:00 PM 55.4 °F - 42.8 °F 63% 30.18 in - NW 13.8 mph - N/A   Clear
9:30 PM 55.4 °F - 42.8 °F 63% 30.18 in - NW 11.5 mph - N/A   Clear
10:00 PM 55 °F - 41 °F 47% 30.22 in 9 mi NNW 8.9 mph - -   Clear
10:00 PM 53.6 °F - 42.8 °F 67% 30.18 in - NNW 12.7 mph - N/A   Clear
10:30 PM 53.6 °F - 42.8 °F 67% 30.18 in - NNW 10.4 mph - N/A   Clear
11:00 PM 53.6 °F - 42.8 °F 67% 30.18 in - NNW 11.5 mph - N/A   Clear
11:30 PM 51.8 °F - 42.8 °F 71% 30.18 in - NNW 8.1 mph - N/A   Clear